Jackson, MS

5:27 AM CDT on April 28, 2017 (GMT -0500)
Jackson-Evers International

Weather History for KJAN - December, 2014

Change the Weather History Date:

Friday, December 19, 2014

  Actual Average Record
Temperature  
Mean Temperature 47 °F 47 °F  
Max Temperature 49 °F 57 °F 76 °F (1984)
Min Temperature 45 °F 37 °F 14 °F (1901)
Degree Days  
Heating Degree Days 18 18  
Month to date heating degree days 241 313  
Since 1 July heating degree days 741 721  
Cooling Degree Days 0 0  
Month to date cooling degree days 2 0  
Year to date cooling degree days 2285 2253  
Moisture  
Dew Point 42 °F    
Average Humidity 77    
Maximum Humidity 93    
Minimum Humidity 61    
Precipitation  
Precipitation 0.30 in 0.16 in 1.48 in (1987)
Month to date precipitation 0.80 3.27  
Year to date precipitation 53.06 52.26  
Sea Level Pressure  
Sea Level Pressure 30.16 in    
Wind  
Wind Speed 5 mph (NE)    
Max Wind Speed 12 mph    
Max Gust Speed 16 mph    
Visibility 9 miles    
Events Rain    
T = Trace of Precipitation, MM = Missing Value Source: NWS Daily Summary

Daily Weather History Graph

Daily Weather History Graph

Search for Another Location

Airport or City:

Trip Planner

Search our weather history database for the weather conditions in past years. The results will help you decide how hot, cold, wet, or windy it might be!

Date:

Astronomy

Dec. 19, 2014 Rise Set
Actual Time 6:56 AM CST 4:58 PM CST
Civil Twilight 6:29 AM CST 5:25 PM CST
Nautical Twilight 5:58 AM CST 5:56 PM CST
Astronomical Twilight 5:28 AM CST 6:26 PM CST
Moon 4:18 AM CST (12/19) 3:15 PM CST (12/19)
Length of Visible Light 10h 56m
Length of Day
10h 01m
Waning Crescent, 7% of the Moon is Illuminated
Dec 19
Waning Crescent
Dec 21
New
Dec 28
First Quarter
Jan 4
Full
Jan 13
Last Quarter

Hourly Weather History & Observations

Time (CST) Temp. Windchill Dew Point Humidity Pressure Visibility Wind Dir Wind Speed Gust Speed Precip Events Conditions
12:54 AM 46.9 °F - 44.1 °F 90% 30.18 in 10.0 mi Calm Calm - N/A   Overcast
1:54 AM 46.9 °F - 43.0 °F 86% 30.16 in 10.0 mi ENE 4.6 mph - N/A   Overcast
2:54 AM 46.9 °F - 43.0 °F 86% 30.15 in 10.0 mi Variable 5.8 mph - N/A   Overcast
3:54 AM 48.0 °F - 39.0 °F 71% 30.14 in 10.0 mi ENE 4.6 mph - N/A   Overcast
4:54 AM 46.9 °F - 37.9 °F 71% 30.13 in 10.0 mi ENE 5.8 mph - N/A   Overcast
5:54 AM 48.0 °F - 37.0 °F 66% 30.16 in 10.0 mi East 4.6 mph - N/A   Overcast
6:54 AM 48.0 °F - 37.0 °F 66% 30.16 in 10.0 mi East 8.1 mph - N/A   Overcast
7:54 AM 48.0 °F - 36.0 °F 63% 30.19 in 10.0 mi ENE 3.5 mph - N/A   Overcast
8:54 AM 48.9 °F - 36.0 °F 61% 30.19 in 10.0 mi East 5.8 mph - N/A   Overcast
9:54 AM 48.9 °F - 36.0 °F 61% 30.23 in 10.0 mi Calm Calm - N/A   Overcast
10:54 AM 46.9 °F - 41.0 °F 80% 30.21 in 9.0 mi ENE 6.9 mph - 0.02 in Rain Light Rain
11:54 AM 46.9 °F - 41.0 °F 80% 30.16 in 10.0 mi NE 8.1 mph - 0.00 in Rain Light Rain
12:08 PM 46.9 °F - 41.0 °F 80% 30.16 in 10.0 mi NE 6.9 mph - 0.01 in Rain Light Rain
12:54 PM 46.9 °F - 43.0 °F 86% 30.15 in 7.0 mi Calm Calm - 0.03 in Rain Light Rain
1:54 PM 46.9 °F - 44.1 °F 90% 30.14 in 7.0 mi North 6.9 mph - 0.04 in Rain Rain
2:38 PM 46.9 °F - 44.1 °F 90% 30.14 in 8.0 mi North 6.9 mph - 0.03 in Rain Light Rain
2:50 PM 46.4 °F 42.9 °F 44.6 °F 93% 30.14 in 8.0 mi NE 6.9 mph - 0.04 in Rain Light Rain
2:54 PM 46.9 °F - 44.1 °F 90% 30.14 in 8.0 mi NNE 8.1 mph - 0.04 in Rain Light Rain
3:17 PM 46.9 °F - 44.1 °F 90% 30.15 in 7.0 mi NNE 5.8 mph - 0.01 in Rain Light Rain
3:27 PM 46.9 °F - 45.0 °F 93% 30.15 in 9.0 mi NE 4.6 mph - 0.01 in Rain Light Rain
3:42 PM 46.9 °F - 44.1 °F 90% 30.15 in 8.0 mi ENE 4.6 mph - 0.02 in Rain Light Rain
3:54 PM 46.9 °F - 44.1 °F 90% 30.16 in 7.0 mi NE 4.6 mph - 0.02 in Rain Light Rain
4:54 PM 46.0 °F - 44.1 °F 93% 30.17 in 7.0 mi Calm Calm - 0.08 in Rain Light Rain
5:54 PM 46.0 °F - 44.1 °F 93% 30.17 in 9.0 mi Calm Calm - 0.05 in Rain Light Rain
6:18 PM 46.0 °F 44.8 °F 44.1 °F 93% 30.17 in 9.0 mi ENE 3.5 mph - 0.01 in Rain Light Rain
6:54 PM 46.0 °F 41.4 °F 43.0 °F 89% 30.14 in 9.0 mi East 9.2 mph - 0.01 in Rain Light Rain
7:31 PM 45.0 °F 39.3 °F 43.0 °F 93% 30.12 in 10.0 mi ESE 11.5 mph - 0.01 in   Scattered Clouds
7:54 PM 45.0 °F 41.2 °F 43.0 °F 93% 30.13 in 10.0 mi East 6.9 mph - 0.01 in   Clear
8:42 PM 45.0 °F 40.6 °F 43.0 °F 93% 30.15 in 10.0 mi NNW 8.1 mph - N/A   Overcast
8:51 PM 46.4 °F 41.9 °F 42.8 °F 87% 30.17 in 10.0 mi NNW 9.2 mph - N/A   Overcast
8:54 PM 46.0 °F 41.9 °F 43.0 °F 89% 30.17 in 10.0 mi NNW 8.1 mph - N/A   Overcast
9:50 PM 46.4 °F 41.1 °F 42.8 °F 87% 30.18 in 10.0 mi North 11.5 mph - N/A   Overcast
9:54 PM 46.0 °F 41.0 °F 43.0 °F 89% 30.18 in 10.0 mi North 10.4 mph - N/A   Overcast
10:21 PM 46.0 °F 42.5 °F 43.0 °F 89% 30.18 in 10.0 mi NNE 6.9 mph - N/A   Overcast
10:54 PM 46.0 °F 41.9 °F 43.0 °F 89% 30.17 in 10.0 mi NNE 8.1 mph - N/A   Overcast
11:28 PM 46.0 °F - 43.0 °F 89% 30.18 in 10.0 mi Calm Calm - N/A   Overcast
11:35 PM 46.0 °F 43.9 °F 43.0 °F 89% 30.18 in 10.0 mi ENE 4.6 mph - N/A   Overcast
11:54 PM 46.0 °F - 43.0 °F 89% 30.18 in 10.0 mi Calm Calm - N/A   Overcast